Change the Weather History Date:

Wednesday, December 11, 2013

  Actual Average Record
Temperature  
Mean Temperature 50 °F -  
Max Temperature 60 °F 59 °F 68 °F (2000)
Min Temperature 39 °F 43 °F 35 °F (2001)
Degree Days  
Heating Degree Days 16    
Moisture  
Dew Point 37 °F    
Average Humidity 59    
Maximum Humidity 93    
Minimum Humidity 29    
Precipitation  
Precipitation 0.00 in 0.21 in - ()
Sea Level Pressure  
Sea Level Pressure 30.42 in    
Wind  
Wind Speed 6 mph ()    
Max Wind Speed 14 mph    
Max Gust Speed -    
Visibility 6.7 miles    
Events      
Averages and records for this station are not official NWS values.
T = Trace of Precipitation, MM = Missing Value Source: Averaged Metar Reports

Daily Weather History Graph

Daily Weather History Graph

Search for Another Location

Airport or City:

Trip Planner

Search our weather history database for the weather conditions in past years. The results will help you decide how hot, cold, wet, or windy it might be!

Date:

Astronomy

Dec. 11, 2013 Rise Set
Actual Time 7:50 AM EET 5:16 PM EET
Civil Twilight 7:20 AM EET 5:46 PM EET
Nautical Twilight 6:46 AM EET 6:20 PM EET
Astronomical Twilight 6:14 AM EET 6:53 PM EET
Moon 1:39 PM EET (12/11) 1:54 AM EET (12/11)
Length of Visible Light 10h 25m
Length of Day
9h 25m
Waxing Gibbous, 69% of the Moon is Illuminated
Dec 11
Waxing Gibbous
Dec 17
Full
Dec 25
Last Quarter
Jan 1
New
Jan 8
First Quarter

Hourly Weather History & Observations

Time (EET) Temp. Dew Point Humidity Pressure Visibility Wind Dir Wind Speed Gust Speed Precip Events Conditions
12:20 AM 57.2 °F 37.4 °F 48% 30.30 in - East 10.4 mph - N/A   Clear
12:50 AM 55.4 °F 35.6 °F 47% 30.33 in - East 11.5 mph - N/A   Clear
1:20 AM 55.4 °F 35.6 °F 47% 30.33 in - East 12.7 mph - N/A   Clear
1:50 AM 53.6 °F 37.4 °F 54% 30.33 in - East 13.8 mph - N/A   Clear
2:00 AM 54 °F 37 °F 40% 30.36 in 6 mi East 13.8 mph - -  
2:20 AM 53.6 °F 37.4 °F 54% 30.33 in - East 9.2 mph - N/A   Clear
2:50 AM 53.6 °F 37.4 °F 54% 30.33 in - East 10.4 mph - N/A   Clear
3:20 AM 53.6 °F 37.4 °F 54% 30.33 in - East 10.4 mph - N/A   Clear
3:50 AM 51.8 °F 35.6 °F 54% 30.39 in - East 6.9 mph - N/A   Clear
4:20 AM 51.8 °F 35.6 °F 54% 30.39 in - East 6.9 mph - N/A   Clear
4:50 AM 51.8 °F 30.2 °F 44% 30.39 in - East 10.4 mph - N/A   Clear
5:20 AM 51.8 °F 30.2 °F 44% 30.39 in - East 9.2 mph - N/A   Clear
5:50 AM 51.8 °F 30.2 °F 44% 30.39 in - SSE 8.1 mph - N/A   Clear
6:20 AM 51.8 °F 30.2 °F 44% 30.39 in - NW 3.5 mph - N/A   Clear
6:50 AM 51.8 °F 30.2 °F 44% 30.39 in - Calm Calm - N/A   Clear
7:20 AM 51.8 °F 30.2 °F 44% 30.39 in - Calm Calm - N/A   Clear
7:50 AM 41.0 °F 35.6 °F 81% 30.42 in - West 2.3 mph - N/A   Clear
8:00 AM 41 °F 36 °F 74% 30.43 in 12 mi West 2.3 mph - -  
8:20 AM 41.0 °F 35.6 °F 81% 30.42 in - Calm Calm - N/A   Clear
8:50 AM 39.2 °F 35.6 °F 87% 30.42 in - Calm Calm - N/A   Clear
9:20 AM 42.8 °F 35.6 °F 76% 30.45 in - West 2.3 mph - N/A   Clear
9:50 AM 46.4 °F 37.4 °F 71% 30.45 in - Calm Calm - N/A   Clear
10:20 AM 50.0 °F 37.4 °F 62% 30.45 in - Calm Calm - N/A   Clear
10:50 AM 53.6 °F 37.4 °F 54% 30.45 in 6.2 mi South 8.1 mph - N/A   Partly Cloudy
11:20 AM 57.2 °F 37.4 °F 48% 30.45 in 6.2 mi SSE 5.8 mph - N/A   Partly Cloudy
11:50 AM 57.2 °F 32.0 °F 38% 30.45 in - SSE 5.8 mph - N/A   Clear
12:50 PM 59.0 °F 37.4 °F 45% 30.45 in - SE 5.8 mph - N/A   Clear
1:20 PM 60.8 °F 37.4 °F 42% 30.45 in 6.2 mi SE 3.5 mph - N/A   Partly Cloudy
1:50 PM 60.8 °F 35.6 °F 39% 30.45 in 6.2 mi ESE 5.8 mph - N/A   Partly Cloudy
2:00 PM 60 °F 36 °F 29% 30.47 in 12 mi ESE 5.8 mph - -   Scattered Clouds
2:20 PM 60.8 °F 35.6 °F 39% 30.45 in 6.2 mi ESE 5.8 mph - N/A   Partly Cloudy
2:50 PM 60.8 °F 35.6 °F 39% 30.45 in 6.2 mi SW 5.8 mph - N/A   Partly Cloudy
3:20 PM 60.8 °F 35.6 °F 39% 30.45 in 6.2 mi WSW 5.8 mph - N/A   Partly Cloudy
3:50 PM 59.0 °F 35.6 °F 42% 30.45 in 6.2 mi WSW 4.6 mph - N/A   Partly Cloudy
4:20 PM 57.2 °F 35.6 °F 44% 30.45 in 6.2 mi SW 6.9 mph - N/A   Partly Cloudy
4:50 PM 57.2 °F 39.2 °F 51% 30.45 in 6.2 mi WSW 4.6 mph - N/A   Partly Cloudy
5:20 PM 55.4 °F 39.2 °F 54% 30.45 in 6.2 mi WSW 4.6 mph - N/A   Partly Cloudy
5:50 PM 53.6 °F 39.2 °F 58% 30.45 in 6.2 mi WSW 4.6 mph - N/A   Partly Cloudy
6:20 PM 53.6 °F 39.2 °F 58% 30.45 in 6.2 mi Calm Calm - N/A   Partly Cloudy
6:50 PM 48.2 °F 39.2 °F 71% 30.45 in 6.2 mi Calm Calm - N/A   Partly Cloudy
7:20 PM 48.2 °F 39.2 °F 71% 30.45 in 6.2 mi Calm Calm - N/A   Partly Cloudy
7:50 PM 44.6 °F 41.0 °F 87% 30.45 in - Calm Calm - N/A   Clear
8:00 PM 45 °F 40 °F 78% 30.46 in 6 mi Calm Calm - -  
8:20 PM 44.6 °F 41.0 °F 87% 30.45 in - Calm Calm - N/A   Clear
8:50 PM 44.6 °F 39.2 °F 81% 30.45 in - Calm Calm - N/A   Clear
9:20 PM 44.6 °F 39.2 °F 81% 30.45 in - Calm Calm - N/A   Clear
9:50 PM 42.8 °F 41.0 °F 93% 30.45 in - Calm Calm - N/A   Clear
10:20 PM 42.8 °F 41.0 °F 93% 30.48 in 6.2 mi Calm Calm - N/A   Mostly Cloudy
10:50 PM 44.6 °F 41.0 °F 87% 30.48 in 6.2 mi West 2.3 mph - N/A   Mostly Cloudy
11:20 PM 44.6 °F 41.0 °F 87% 30.48 in 6.2 mi Calm Calm - N/A   Scattered Clouds
11:50 PM 44.6 °F 41.0 °F 87% 30.45 in 6.2 mi Calm Calm - N/A   Mostly Cloudy